RH
87 76 83 79 76 75 75 75 75 75 75 74 75 76 79 78 78 80 78 78 77 75 74 75 73 72 72 71 71 72 70 71 73 73 71 72 69 70 67 65 65 37 70
71 71 79 76 77 77 77 79 79 75 73 75 77 78 76 76 78 79 78 76 76 73 73 73 72 72 72 70 69 68 69 71 70 69 69 68 71 71 68 64 64 57 72
56 54 58 78 78 77 78 77 76 76 74 74 75 74 73 76 77 77 76 75 75 73 72 71 71 71 70 70 69 67 68 69 67 68 64 36 45 69 64 68 68 72 71
47 49 55 84 80 78 78 75 75 74 72 76 76 74 75 76 77 75 73 74 74 73 72 71 70 70 70 70 69 69 69 67 66 65 47 36 35 68 69 72 73 70 74
48 53 62 80 82 80 76 76 76 75 75 75 76 74 75 75 75 73 72 73 73 72 70 70 70 70 69 70 70 70 69 67 68 63 49 42 37 56 69 71 72 67 67
44 48 72 79 78 77 77 77 76 76 76 75 73 75 74 73 72 71 72 72 71 70 69 68 68 68 68 67 68 68 68 67 64 54 54 52 44 64 70 66 66 70 74
40 47 57 80 78 78 76 76 75 74 74 74 74 73 72 72 71 72 71 69 69 68 67 67 68 68 69 69 69 68 68 65 52 51 57 51 49 66 65 66 64 66 74
43 45 52 74 77 78 75 74 75 74 75 75 73 73 73 72 71 71 69 67 67 66 66 68 69 66 66 66 68 66 66 65 48 46 47 52 76 68 65 68 69 69 72
39 52 52 52 64 75 76 73 73 73 73 74 73 73 73 72 71 70 69 68 67 67 66 66 66 63 62 64 65 63 63 62 46 45 39 54 79 68 68 67 73 70 72
38 53 53 56 53 55 56 73 74 75 75 74 75 74 73 71 69 69 70 71 67 67 66 66 66 63 63 64 66 63 64 63 39 47 46 50 81 71 67 70 69 71 71
45 50 46 47 50 52 50 59 73 75 75 74 72 73 69 41 45 48 65 68 66 68 67 66 66 63 63 64 67 66 65 37 34 41 43 82 79 74 65 73 68 71 70
48 50 40 40 45 49 40 58 54 50 46 49 50 55 47 45 49 52 60 69 71 69 69 65 62 63 64 34 38 57 37 36 36 35 42 79 77 75 70 70 70 73 73
46 41 39 45 49 48 48 46 45 44 42 46 59 57 50 48 47 44 42 44 44 58 38 47 46 46 43 41 39 36 36 37 31 31 58 81 80 76 73 72 72 71 72
47 45 44 50 56 54 46 45 42 41 43 42 42 58 54 49 50 51 41 45 54 44 51 46 41 50 46 44 44 44 41 40 36 32 48 77 82 76 73 72 74 73 72
46 46 48 52 61 59 62 46 43 45 42 40 42 46 45 45 50 49 52 47 47 45 43 48 46 47 48 46 44 47 43 44 44 37 34 73 79 81 75 72 72 74 75
43 44 45 52 58 60 60 64 54 48 42 43 40 42 55 50 50 73 52 44 47 45 47 51 56 54 54 49 50 48 48 45 45 49 38 44 74 79 81 75 72 72 75
41 42 46 51 52 61 62 59 56 44 42 42 43 53 56 60 58 74 50 49 44 52 62 62 57 50 46 42 48 48 43 44 38 43 40 38 44 77 74 76 77 76 76
42 47 48 41 47 58 61 58 51 45 45 44 49 47 57 58 67 69 79 49 44 52 48 52 58 42 37 37 39 38 37 36 35 38 36 37 31 30 66 75 76 76 72
44 48 50 49 46 54 62 57 56 61 68 48 65 53 55 56 56 56 52 49 60 51 54 48 42 47 41 36 31 28 34 36 34 30 41 43 39 38 32 74 76 76 73
42 48 53 48 56 60 55 63 68 77 77 52 48 64 60 56 55 55 48 54 60 54 56 45 60 45 42 40 35 33 37 37 37 37 40 33 43 44 40 49 45 48 73
43 50 56 59 63 60 57 54 52 52 75 54 50 59 58 60 59 60 47 52 60 56 52 58 49 44 37 43 43 34 35 41 41 37 36 35 40 40 48 47 44 40 51
46 51 58 62 66 66 54 57 50 50 44 44 48 55 60 58 60 58 61 54 59 44 62 59 56 40 39 46 45 40 37 40 36 35 38 34 40 34 37 46 54 61 62
45 52 56 64 66 67 64 57 60 58 58 53 51 51 52 59 59 63 60 56 62 56 40 53 51 58 40 44 58 46 40 37 36 39 45 35 41 33 34 41 46 48 51
41 46 55 62 68 64 69 63 70 55 50 41 45 42 46 56 56 58 63 63 68 46 52 47 45 53 59 43 44 48 53 56 43 40 36 36 34 33 42 32 34 42 43
37 40 48 60 69 69 70 72 59 68 46 46 46 58 65 61 61 54 63 64 64 44 55 58 59 61 45 48 44 44 54 44 53 43 36 34 32 32 33 33 32 31 37
32 37 42 59 73 71 68 70 74 68 63 49 56 53 45 43 52 63 61 65 60 50 59 54 60 60 61 58 47 50 42 41 40 42 41 43 43 35 31 31 34 33 32
Wind_Speed
9 12 17 19 19 18 16 13 13 11 9 11 12 12 12 13 10 11 11 11 12 12 12 12 12 12 11 10 10 8 8 8 9 10 8 9 7 8 7 4 5 11 8
12 13 16 16 16 17 14 11 10 11 10 11 11 10 12 11 11 12 11 10 11 12 11 11 11 11 10 10 9 9 6 6 6 7 6 10 10 7 6 3 7 14 10
15 16 16 13 14 14 12 11 12 14 13 12 10 11 11 10 11 11 10 10 11 11 10 10 9 10 9 9 9 8 7 4 5 5 4 1 12 6 5 6 8 11 10
17 15 14 12 12 12 12 12 13 14 14 12 10 10 9 9 10 9 8 9 10 9 9 9 9 8 8 8 8 7 6 5 4 3 7 4 11 7 8 9 10 9 10
11 12 12 11 13 12 13 12 13 14 14 12 10 10 9 9 8 7 8 9 9 8 7 8 7 7 7 7 6 6 5 4 2 6 3 6 3 10 8 8 11 10 7
12 11 12 11 12 14 13 12 13 13 13 11 10 10 9 7 7 7 7 7 7 6 6 6 6 6 6 5 4 4 4 1 5 2 4 7 5 9 7 7 8 8 7
14 13 13 11 12 13 14 13 13 13 12 11 10 8 7 6 6 6 6 5 5 4 4 5 5 5 5 5 5 3 4 3 4 4 5 2 10 7 6 9 8 7 6
15 13 14 11 12 13 14 13 12 12 11 10 9 7 6 5 4 4 4 2 2 3 4 5 5 5 4 5 4 4 3 5 3 3 3 5 10 7 6 6 7 6 7
16 12 13 13 13 12 13 12 11 11 10 9 7 6 5 4 3 1 1 2 3 4 6 6 6 5 4 4 4 4 3 3 4 3 4 6 11 7 7 6 6 8 6
13 11 12 11 13 12 12 11 10 9 9 8 6 5 4 3 3 4 4 1 4 6 6 6 6 4 4 3 3 4 5 8 3 6 4 9 11 9 9 9 7 7 7
12 11 13 14 12 11 10 10 9 9 8 7 8 6 7 6 3 3 7 4 6 7 7 7 6 4 4 4 3 2 11 2 2 3 2 11 8 10 8 11 9 9 8
14 12 11 12 12 10 8 10 8 8 9 8 6 5 6 1 2 6 5 5 7 4 5 4 3 7 11 2 4 11 3 5 4 1 5 9 8 10 11 11 10 10 10
14 12 12 11 11 11 7 7 5 5 5 5 5 5 4 3 3 4 2 4 2 5 4 3 6 3 4 5 4 5 4 5 2 1 9 9 10 11 12 12 12 12 11
14 13 12 12 10 11 7 7 7 6 6 5 6 6 4 5 4 4 2 4 3 3 4 3 4 4 5 3 5 6 5 5 4 2 8 8 9 11 12 12 14 13 12
14 14 13 12 12 10 8 7 6 6 6 6 5 7 6 5 4 4 3 4 3 5 4 3 4 5 7 6 5 5 6 4 6 5 2 9 6 9 11 13 13 14 14
15 15 14 14 13 12 10 9 7 7 6 7 6 6 8 7 5 1 6 6 3 5 3 3 4 5 5 5 6 4 5 5 4 5 7 3 9 8 11 13 13 14 14
14 14 14 14 14 13 12 10 8 7 8 7 7 8 8 8 8 6 6 5 5 4 6 2 5 5 5 5 5 4 5 3 6 5 6 7 5 13 10 12 13 12 15
14 15 14 13 14 14 12 10 8 8 7 7 5 6 6 9 9 6 4 6 5 4 4 4 4 4 5 5 4 6 5 5 6 7 7 5 6 6 12 12 10 10 14
15 14 15 14 14 14 13 10 10 8 5 7 4 7 8 7 7 6 5 6 5 5 6 4 4 4 6 6 6 4 4 4 4 3 3 3 3 5 5 14 8 8 11
14 14 14 13 13 12 9 9 7 7 7 7 7 6 6 6 8 6 5 5 4 5 5 2 4 7 5 4 6 5 4 3 2 1 4 1 5 3 4 2 4 8 7
15 15 15 14 14 10 10 9 8 8 6 7 8 8 9 8 10 7 7 5 5 7 2 1 4 3 6 4 6 2 2 4 1 1 2 3 3 2 4 4 3 3 7
17 16 16 16 15 13 10 8 7 6 7 6 7 5 7 7 8 7 6 4 3 2 2 2 3 5 2 3 5 4 2 6 4 1 1 2 4 2 3 4 5 5 3
19 18 17 17 16 15 14 9 7 6 6 6 7 6 7 8 7 6 5 4 4 5 2 2 2 3 4 2 4 4 3 2 3 5 4 3 2 3 4 4 6 6 5
19 18 19 18 17 16 16 12 12 9 9 6 5 4 4 5 5 5 5 5 4 3 2 1 1 4 4 3 1 1 3 6 4 2 5 3 3 2 4 3 5 5 4
21 19 18 18 17 16 15 14 12 13 9 7 6 3 7 5 7 7 6 5 4 5 3 2 2 2 2 5 2 1 1 2 0 5 4 2 1 3 3 1 2 1 3
20 20 19 19 17 17 17 17 16 14 12 9 7 7 7 6 7 7 8 7 6 4 4 3 3 3 3 3 4 2 3 3 2 4 5 4 3 2 3 3 3 2 2
Wind_Direction
116 131 132 129 125 123 125 129 129 131 121 113 115 114 110 102 98 97 91 82 80 76 71 67 63 60 59 51 54 62 79 91 101 104 100 96 94 86 80 95 249 119 123
131 138 133 129 130 128 129 131 142 144 133 130 119 120 107 103 98 94 88 84 79 77 70 68 64 60 54 50 48 55 86 86 97 109 129 136 108 105 100 96 354 99 116
127 127 135 136 135 132 133 136 129 134 137 132 130 115 112 102 93 92 89 86 79 74 68 63 57 55 53 46 44 54 73 101 105 111 230 195 98 105 104 122 93 111 119
139 136 138 143 144 140 134 130 125 129 128 132 125 116 111 105 95 95 91 83 76 70 66 58 48 44 46 45 43 54 66 67 128 190 224 47 103 102 84 94 111 116 110
126 123 122 146 136 140 130 134 134 131 131 134 128 123 122 110 107 104 92 82 76 72 64 57 48 35 35 42 32 35 48 49 154 215 79 74 58 102 105 116 134 132 174
137 134 125 137 137 134 137 134 130 131 135 138 138 136 126 123 117 105 88 78 73 64 54 42 31 23 23 17 26 8 22 18 256 62 136 111 44 99 113 107 104 98 116
135 121 136 132 132 137 139 133 134 135 142 146 143 137 138 130 113 97 83 75 64 54 27 8 3 355 4 353 342 348 338 310 306 27 119 122 95 122 124 129 124 134 130
125 141 131 134 142 148 150 144 142 148 148 147 145 147 146 138 120 102 97 66 36 359 352 341 349 351 359 344 334 325 331 310 198 96 93 115 112 142 138 150 146 132 145
137 131 145 150 146 143 145 152 154 152 155 155 155 154 151 154 128 104 358 343 334 328 331 342 353 360 1 354 342 330 316 309 319 16 147 149 142 165 164 157 145 153 141
136 151 145 151 156 158 154 157 157 156 161 158 161 164 180 186 193 205 249 192 334 323 324 330 339 349 349 352 1 330 309 220 173 194 135 88 152 178 181 173 170 160 160
152 170 162 161 159 162 160 147 159 163 162 169 181 191 206 235 171 201 60 346 313 306 304 304 311 312 271 199 126 256 257 340 281 74 91 123 163 193 195 176 182 186 183
162 175 169 167 160 170 169 153 179 169 187 197 194 180 232 273 297 322 311 275 266 282 268 249 261 244 241 327 150 208 245 23 257 20 84 139 179 201 210 189 192 199 188
170 179 171 170 168 184 170 184 187 191 192 188 212 219 222 263 218 242 275 234 306 168 306 214 195 244 29 333 356 332 5 256 303 48 99 156 194 208 207 203 200 203 200
177 181 172 173 181 197 183 197 200 201 201 217 192 205 235 233 212 253 276 353 239 344 327 316 340 4 286 311 317 336 330 313 330 319 130 151 203 212 209 211 206 209 208
183 184 181 184 187 196 204 203 221 220 199 218 213 201 241 253 241 249 289 271 287 267 269 306 311 327 324 292 304 298 303 309 314 305 313 135 205 215 220 215 213 211 211
190 188 187 191 191 200 206 210 217 221 225 225 226 224 216 251 248 270 257 256 302 300 318 321 322 327 299 301 288 299 314 311 327 319 315 147 169 220 220 223 218 210 218
194 192 195 196 192 200 207 209 217 219 218 226 224 217 237 236 245 255 255 280 271 211 246 297 283 284 276 281 281 276 284 231 290 303 289 290 190 182 210 229 223 221 212
201 197 198 199 195 200 208 210 223 220 225 222 240 239 243 250 264 267 256 263 262 271 301 253 261 310 312 313 308 288 314 301 294 280 268 295 278 298 181 196 223 226 226
198 196 202 205 204 201 205 214 219 224 226 248 217 244 231 247 248 256 263 266 257 267 244 268 306 327 321 298 296 285 299 281 291 344 326 287 285 252 281 156 198 241 240
194 199 203 202 208 203 206 213 218 218 235 246 232 245 239 248 257 243 236 253 245 217 242 319 332 343 305 328 317 324 300 292 334 173 83 358 78 358 340 311 229 198 199
199 196 201 204 200 206 201 209 214 219 214 234 260 242 245 234 244 247 256 237 233 234 347 288 309 299 314 14 283 331 144 208 230 67 116 23 58 34 44 14 320 325 145
201 203 203 209 207 208 207 215 235 233 238 245 228 252 252 249 229 235 254 244 209 145 230 311 346 314 290 30 328 277 226 165 189 116 29 39 17 24 64 56 42 33 359
203 205 206 208 210 210 221 208 206 236 245 235 236 241 227 237 240 230 222 255 169 272 277 301 344 333 329 329 348 321 264 12 335 146 177 54 356 33 27 84 53 47 30
208 206 208 209 209 211 209 219 215 225 233 229 242 245 258 228 226 196 199 197 204 271 6 224 313 328 295 329 261 169 344 359 327 203 156 135 144 88 50 81 99 90 40
206 207 206 209 209 213 203 220 207 224 230 232 223 216 236 188 215 203 189 184 195 248 156 276 254 283 289 316 288 322 353 280 86 306 310 91 214 137 136 265 5 1 117
205 207 206 203 206 204 207 205 217 224 226 224 202 204 209 201 192 209 189 182 187 199 208 235 250 232 277 310 306 283 269 297 321 302 288 275 340 260 311 232 239 292 317